Location: Wildcat Hills Observatory
(41.6350°N, 103.6812°W)
Time: 07:43:17
(UTC-06:00)

Cosmos 1340 - Pass Details

Date: 23 June 2018
Orbit: 504 x 507 km, 81.2° (Epoch: 21 July)

Event Time Altitude Azimuth Distance (km) Brightness Sun altitude
Rises 22:09:19 0° 350° (N) 2,620 7.4 -14.2°
Reaches altitude 10° 22:11:27 10° 351° (N) 1,730 6.3 -14.5°
Maximum altitude 22:15:15 89° 73° (ENE) 513 2.6 -14.9°
Enters shadow 22:17:18 26° 170° (S) 1,027 3.7 -15.2°
